This is the latest recevied weather packets stored in our database for station/object KF0TNT. If no packets are shown the sender has not sent any weather packets the latest 10 day(s).
| Time | Temp. | Humidity | Pressure | Rain* | Wind** | Luminosity | Snow |
|---|---|---|---|---|---|---|---|
| 1777583463 | 1.67° C | 93% | 1021.5 hPa | 0 mm | - | 105 W/m² | - |
| 1777583163 | 1.67° C | 93% | 1021.6 hPa | 0 mm | - | 104 W/m² | - |
| 1777582859 | 1.67° C | 93% | 1021.5 hPa | 0 mm | - | 120 W/m² | - |
| 1777582556 | 1.67° C | 93% | 1021.3 hPa | 0 mm | - | 125 W/m² | - |
| 1777582251 | 1.67° C | 92% | 1021.1 hPa | 0 mm | - | 117 W/m² | - |
| 1777581949 | 1.67° C | 91% | 1021.5 hPa | 0 mm | - | 122 W/m² | - |
| 1777581644 | 1.67° C | 91% | 1021.2 hPa | 0 mm | - | 160 W/m² | - |
| 1777581338 | 1.67° C | 90% | 1021.1 hPa | 0 mm | - | 118 W/m² | - |
| 1777581034 | 1.67° C | 90% | 1021.2 hPa | 0 mm | - | 111 W/m² | - |
| 1777580733 | 1.67° C | 91% | 1021.5 hPa | 0 mm | - | 143 W/m² | - |
| 1777580430 | 1.67° C | 91% | 1021.2 hPa | 0 mm | - | 152 W/m² | - |
| 1777580125 | 1.67° C | 90% | 1021.6 hPa | 0 mm | - | 119 W/m² | - |
| 1777579822 | 1.67° C | 92% | 1021.6 hPa | 0 mm | - | 123 W/m² | - |
| 1777579521 | 1.67° C | 91% | 1021.3 hPa | 0 mm | - | 129 W/m² | - |
| 1777579221 | 1.67° C | 91% | 1021.5 hPa | 0 mm | - | 129 W/m² | - |
| 1777578916 | 1.67° C | 91% | 1021.3 hPa | 0 mm | - | 146 W/m² | - |
| 1777578612 | 1.67° C | 91% | 1021.5 hPa | 0 mm | - | 172 W/m² | - |
| 1777578306 | 1.67° C | 91% | 1021.3 hPa | 0 mm | - | 167 W/m² | - |
| 1777578003 | 1.67° C | 90% | 1021.3 hPa | 0 mm | - | 173 W/m² | - |
| 1777577703 | 1.67° C | 89% | 1021.5 hPa | 0 mm | - | 153 W/m² | - |
| 1777577400 | 1.67° C | 89% | 1021.5 hPa | 0 mm | - | 175 W/m² | - |
| 1777577096 | 1.67° C | 89% | 1021.5 hPa | 0 mm | - | 189 W/m² | - |
| 1777576793 | 1.67° C | 90% | 1021.5 hPa | 0 mm | - | 214 W/m² | - |
| 1777576492 | 1.67° C | 90% | 1021.6 hPa | 0 mm | - | 185 W/m² | - |
| 1777576189 | 1.67° C | 90% | 1021.3 hPa | 0 mm | - | 176 W/m² | - |
* Rain latest hour (hover to see other rain measurements)
** Current wind speed in m/s (hover to see current wind gust speed)